Weather History for Lufkin, TX

Change the Weather History Date:

Tuesday, June 25, 2013

  Actual Average Record
Temperature  
Mean Temperature 85 °F 81 °F  
Max Temperature 95 °F 92 °F 104 °F (2012)
Min Temperature 74 °F 71 °F 54 °F (1974)
Degree Days  
Heating Degree Days 0 0  
Month to date heating degree days 0 0  
Since 1 June heating degree days 0 0  
Since 1 July heating degree days 1615 1917  
Cooling Degree Days 20 16  
Month to date cooling degree days 422 369  
Year to date cooling degree days 936 838  
Since 1 June cooling degree days 422 369  
Growing Degree Days 33 (Base 50)    
Moisture  
Dew Point 74 °F    
Average Humidity 72    
Maximum Humidity 94    
Minimum Humidity 49    
Precipitation  
Precipitation 0.00 in 0.15 in 3.06 in (1960)
Month to date precipitation 5.57 3.96  
Year to date precipitation 21.00 23.48  
Snow  
Snow 0.00 in - - ()
Month to date snowfall 0.0  
Since 1 June snowfall 0.0  
Since 1 July snowfall 0.0  
Snow Depth 0.00 in    
Sea Level Pressure  
Sea Level Pressure 30.00 in    
Wind  
Wind Speed 8 mph (SSE)    
Max Wind Speed 15 mph    
Max Gust Speed 23 mph    
Visibility 9 miles    
Events      
T = Trace of Precipitation, MM = Missing Value Source: NWS Daily Summary

Daily Weather History Graph

Daily Weather History Graph

Search for Another Location

Airport:

Trip Planner

Search our weather history database for the weather conditions in past years. The results will help you decide how hot, cold, wet, or windy it might be!

Date:

Astronomy

Jun. 25, 2013 Rise Set
Actual Time 6:16 AM CDT 8:26 PM CDT
Civil Twilight 5:48 AM CDT 8:54 PM CDT
Nautical Twilight 5:14 AM CDT 9:28 PM CDT
Astronomical Twilight 4:37 AM CDT 10:05 PM CDT
Moon 10:25 PM CDT (6/25) 8:47 AM CDT (6/25)
Length of Visible Light 15h 06m
Length of Day
14h 10m
Waning Gibbous, 92% of the Moon is Illuminated
Jun 25
Waning Gibbous
Jun 29
Last Quarter
Jul 8
New
Jul 15
First Quarter
Jul 22
Full

Hourly Weather History & Observations

Time (CDT) Temp. Heat Index Dew Point Humidity Pressure Visibility Wind Dir Wind Speed Gust Speed Precip Events Conditions
12:53 AM 77.0 °F - 73.9 °F 90% 30.02 in 10.0 mi SSE 3.5 mph - N/A   Clear
1:53 AM 75.9 °F - 73.9 °F 94% 30.02 in 10.0 mi SE 3.5 mph - N/A   Clear
2:53 AM 75.0 °F - 73.9 °F 96% 30.02 in 9.0 mi ESE 4.6 mph - N/A   Clear
3:53 AM 75.0 °F - 73.9 °F 96% 30.03 in 8.0 mi ESE 3.5 mph - N/A   Scattered Clouds
4:03 AM 75.2 °F - 73.4 °F 94% 30.04 in 7.0 mi ESE 4.6 mph - N/A   Mostly Cloudy
4:53 AM 75.0 °F - 73.9 °F 96% 30.02 in 7.0 mi SE 5.8 mph - N/A   Mostly Cloudy
5:53 AM 75.0 °F - 73.9 °F 96% 30.02 in 7.0 mi SE 5.8 mph - N/A   Mostly Cloudy
6:08 AM 75.2 °F - 73.4 °F 94% 30.03 in 7.0 mi SSE 5.8 mph - N/A   Mostly Cloudy
6:29 AM 73.4 °F - 73.4 °F 100% 30.03 in 5.0 mi SE 5.8 mph - N/A   Overcast
6:53 AM 75.0 °F - 73.9 °F 96% 30.02 in 5.0 mi SE 5.8 mph - N/A   Overcast
7:14 AM 75.2 °F - 73.4 °F 94% 30.05 in 6.0 mi SE 4.6 mph - N/A   Overcast
7:53 AM 77.0 °F - 75.0 °F 94% 30.04 in 7.0 mi SSE 8.1 mph - N/A   Mostly Cloudy
8:53 AM 80.1 °F 85.1 °F 75.0 °F 85% 30.05 in 10.0 mi South 6.9 mph - N/A   Overcast
9:13 AM 80.6 °F 86.2 °F 75.2 °F 84% 30.07 in 10.0 mi SSE 8.1 mph - N/A   Mostly Cloudy
9:53 AM 82.0 °F 87.9 °F 73.9 °F 76% 30.05 in 10.0 mi SSW 9.2 mph 18.4 mph N/A   Partly Cloudy
10:53 AM 88.0 °F 95.6 °F 73.0 °F 61% 30.04 in 10.0 mi South 10.4 mph - N/A   Partly Cloudy
11:53 AM 89.1 °F 97.0 °F 73.0 °F 59% 30.03 in 10.0 mi South 8.1 mph 16.1 mph N/A   Scattered Clouds
12:53 PM 90.0 °F 97.9 °F 73.0 °F 57% 30.02 in 10.0 mi SW 9.2 mph - N/A   Partly Cloudy
1:53 PM 90.0 °F 96.9 °F 72.0 °F 55% 30.00 in 10.0 mi SSE 9.2 mph - N/A   Scattered Clouds
2:53 PM 93.0 °F 100.7 °F 72.0 °F 50% 29.98 in 10.0 mi SSE 9.2 mph - N/A   Partly Cloudy
3:53 PM 93.9 °F 100.8 °F 71.1 °F 47% 29.97 in 10.0 mi SE 9.2 mph 18.4 mph N/A   Scattered Clouds
4:53 PM 93.0 °F 100.7 °F 72.0 °F 50% 29.95 in 10.0 mi South 10.4 mph - N/A   Clear
5:53 PM 91.9 °F 99.5 °F 72.0 °F 52% 29.93 in 10.0 mi SSE 8.1 mph - N/A   Clear
6:53 PM 91.9 °F 101.3 °F 73.9 °F 55% 29.92 in 10.0 mi SSE 6.9 mph - N/A   Clear
7:53 PM 88.0 °F 96.5 °F 73.9 °F 63% 29.92 in 10.0 mi South 9.2 mph - N/A   Clear
8:53 PM 84.9 °F 92.1 °F 73.9 °F 69% 29.92 in 10.0 mi SSE 9.2 mph - N/A   Clear
9:53 PM 82.9 °F 89.4 °F 73.9 °F 74% 29.94 in 10.0 mi SSE 6.9 mph - N/A   Clear
10:53 PM 82.0 °F 87.9 °F 73.9 °F 76% 29.94 in 10.0 mi South 6.9 mph - N/A   Clear
11:53 PM 80.1 °F 85.1 °F 75.0 °F 85% 29.95 in 10.0 mi SSE 9.2 mph - N/A   Clear